Regional Weather Roundup
Issued by NWS New Orleans/Baton Rouge, LA

Home | Current Version | Previous Version | Text Only | Print | Product List | Glossary Off
Versions: 1 2 3 4 5 6 7 8 9 10 11 12 13 14 15 16 17 18 19 20 21 22 23 24 25 26 27 28 29 30 31 32 33 34 35 36 37 38 39 40 41 42 43 44 45 46 47 48 49 50

616
ASUS44 KLIX 041410
RWRLIX
NEW ORLEANS REGIONAL WEATHER ROUNDUP
NATIONAL WEATHER SERVICE NEW ORLEANS LA
800 AM CST WED MAR 04 2015

NOTE: "FAIR" INDICATES FEW OR NO CLOUDS BELOW 12,000 FEET WITH NO
      SIGNIFICANT WEATHER AND/OR OBSTRUCTIONS TO VISIBILITY.
      SKY/WX - SKY CONDITION AND SIGNIFICANT WEATHER.
      TMP - AIR TEMPERATURE.     DP    - DEWPOINT TEMPERATURE.
      RH  - RELATIVE HUMIDITY.   PRES  - PRESSURE.
      HI  - HEAT INDEX.          WCI   - WIND CHILL INDEX.

*  THESE STATIONS ARE NOT NWS OR FAA STATIONS AND ARE NOT UNDER
   NWS QUALITY CONTROL.

LAZ038-040-048-061>063-065>067-069-041500-
SOUTHEAST LOUISIANA

CITY           SKY/WX    TMP DP  RH WIND       PRES   REMARKS
N.O. AUDUBON     N/A     70  70 100 MISG        N/A
N.O. INTL ARPT MOSUNNY   71  66  84 SE3       30.00R
N.O. LAKEFRONT PTSUNNY   68  63  84 SE5       30.02R
SLIDELL        CLOUDY    68  67  96 S3        30.01R
BATON ROUGE    PTSUNNY   70  67  90 SE8       29.99R
BOOTHVILLE     PTSUNNY   69  67  93 SE7       30.02R
BELLE CHASSE   PTSUNNY   70  66  87 S6        30.00R
BOGALUSA*        N/A     70  66  88 S6        30.03R
GALLIANO*      MOSUNNY   65  64  98 CALM      30.00S
NEW ROADS*     CLOUDY    68  67  98 E5        29.98R FOG
GONZALES*      FOG       69  69 100 SE5       29.99R VSB 1
HAMMOND*       FOG       64  63  94 CALM      30.02S VSB 1/4
HOUMA*         MOSUNNY   70  70 100 SE3       29.99R HAZE
PORT FOURCHON* PTSUNNY   72  70  94 SE5       30.04R FOG

$$

MSZ070-080>082-041500-
SOUTHERN MISSISSIPPI

CITY           SKY/WX    TMP DP  RH WIND       PRES   REMARKS
MCCOMB         CLOUDY    68  67  96 S6        30.00S FOG
GULFPORT       MOSUNNY   67  65  93 SE8       30.03R FOG
BILOXI         PTSUNNY   68  68 100 S9        30.03R
PASCAGOULA     SUNNY     70  66  87 SE8       30.03R
STENNIS ARPT*  PTSUNNY   68  63  83 S3        30.02R

$$

COASTAL OBSERVATIONS
LAKE AND NEARSHORE STATIONS

STATION/POSITION TIME  TEMP    WIND        PRES    WAVE
                       AIR SEA DIR/SP/G            HT/PER
                 (UTC) (F)     (DEG/KT/KT) (MB)    (FT/S)
PASCAGOULA       1400   67     150/  6/ 12 1016.5
WAVELAND YACHT   1400   62 60  160/  8/  9 1016.3
GRAND ISLE       1400   70 64  220/  5/ 10 1016.6
SOUTHWEST PASS   1400   67 45  150/  6/  7 1016.6
NEW CANAL        1400   67      50/  2/  3 1016.5
SHELL BEACH      1400   67 60  150/  8/ 10 1016.2

OFFSHORE STATIONS

STATION/POSITION TIME  TEMP    WIND        PRES    WAVE
                       AIR SEA DIR/SP/G            HT/PER
                 (UTC) (F)     (DEG/KT/KT) (MB)    (FT/S)
64 S DAUPHIN ISL 1251   72 71  140/ 12/ 14 1017.2    4/ 6

$$




USA.gov is the U.S. government's official web portal to all federal, state and local government web resources and services.